Weather History for Whiting Fld NAS, FL

Change the Weather History Date:

Wednesday, February 27, 2013

  Actual Average Record
Temperature  
Mean Temperature 52 °F -  
Max Temperature 64 °F 64 °F 81 °F (2011)
Min Temperature 41 °F 46 °F 26 °F (2002)
Degree Days  
Heating Degree Days 12    
Growing Degree Days 2 (Base 50)    
Moisture  
Dew Point 39 °F    
Average Humidity 62    
Maximum Humidity 89    
Minimum Humidity 35    
Precipitation  
Precipitation 0.00 in - - ()
Sea Level Pressure  
Sea Level Pressure 29.93 in    
Wind  
Wind Speed 4 mph (WSW)    
Max Wind Speed 12 mph    
Max Gust Speed -    
Visibility 10 miles    
Events      
Averages and records for this station are not official NWS values.
T = Trace of Precipitation, MM = Missing Value Source: NWS Daily Summary

Daily Weather History Graph

Daily Weather History Graph

Search for Another Location

Airport:

Trip Planner

Search our weather history database for the weather conditions in past years. The results will help you decide how hot, cold, wet, or windy it might be!

Date:

Astronomy

Feb. 27, 2013 Rise Set
Actual Time 6:16 AM CST 5:45 PM CST
Civil Twilight 5:52 AM CST 6:09 PM CST
Nautical Twilight 5:24 AM CST 6:37 PM CST
Astronomical Twilight 4:56 AM CST 7:05 PM CST
Moon 7:52 PM CST (2/27) 7:02 AM CST (2/27)
Length of Visible Light 12h 17m
Length of Day
11h 29m
Waning Gibbous, 96% of the Moon is Illuminated
Feb 27
Waning Gibbous
Mar 4
Last Quarter
Mar 11
New
Mar 19
First Quarter
Mar 27
Full

Hourly Weather History & Observations

Time (CST) Temp. Dew Point Humidity Pressure Visibility Wind Dir Wind Speed Gust Speed Precip Events Conditions
12:56 AM 48.0 °F 42.1 °F 80% 29.91 in 10.0 mi NW 4.6 mph - N/A   Clear
1:56 AM 46.9 °F 39.9 °F 77% 29.90 in 10.0 mi Calm Calm - N/A   Clear
2:56 AM 46.0 °F 39.9 °F 79% 29.88 in 10.0 mi Calm Calm - N/A   Clear
3:56 AM 44.1 °F 39.0 °F 82% 29.89 in 10.0 mi Calm Calm - N/A   Clear
4:56 AM 43.0 °F 37.9 °F 82% 29.93 in 10.0 mi Calm Calm - 0.00 in   Clear
5:56 AM 41.0 °F 37.0 °F 86% 29.94 in 10.0 mi Calm Calm - N/A   Mostly Cloudy
6:56 AM 43.0 °F 39.9 °F 89% 29.94 in 8.0 mi Calm Calm - N/A   Mostly Cloudy
7:56 AM 48.0 °F 39.9 °F 74% 29.95 in 10.0 mi SE 3.5 mph - N/A   Mostly Cloudy
8:56 AM 52.0 °F 39.0 °F 61% 29.97 in 10.0 mi SW 3.5 mph - N/A   Mostly Cloudy
9:56 AM 55.9 °F 36.0 °F 47% 29.99 in 10.0 mi NW 9.2 mph - N/A   Mostly Cloudy
10:56 AM 57.9 °F 36.0 °F 44% 29.99 in 10.0 mi Variable 4.6 mph - N/A   Mostly Cloudy
11:56 AM 60.1 °F 36.0 °F 41% 29.97 in 10.0 mi West 8.1 mph - N/A   Mostly Cloudy
12:56 PM 61.0 °F 35.1 °F 38% 29.95 in 10.0 mi Variable 6.9 mph - N/A   Mostly Cloudy
1:56 PM 64.0 °F 36.0 °F 35% 29.93 in 10.0 mi WSW 9.2 mph - N/A   Mostly Cloudy
2:56 PM 64.0 °F 36.0 °F 35% 29.91 in 10.0 mi SW 9.2 mph - N/A   Scattered Clouds
3:56 PM 64.0 °F 39.9 °F 41% 29.90 in 10.0 mi South 11.5 mph - N/A   Scattered Clouds
4:56 PM 61.0 °F 39.9 °F 46% 29.91 in 10.0 mi SSW 9.2 mph - N/A   Scattered Clouds
5:56 PM 57.0 °F 37.9 °F 49% 29.92 in 10.0 mi WSW 6.9 mph - N/A   Partly Cloudy
6:56 PM 54.0 °F 39.0 °F 57% 29.93 in 10.0 mi WSW 6.9 mph - N/A   Partly Cloudy
7:56 PM 53.1 °F 39.9 °F 61% 29.94 in 10.0 mi WSW 6.9 mph - N/A   Clear
8:56 PM 52.0 °F 41.0 °F 66% 29.94 in 10.0 mi WSW 6.9 mph - N/A   Clear
9:56 PM 52.0 °F 42.1 °F 69% 29.95 in 10.0 mi WSW 6.9 mph - N/A   Clear
10:56 PM 50.0 °F 42.1 °F 74% 29.94 in 10.0 mi West 4.6 mph - N/A   Clear
11:56 PM 48.0 °F 42.1 °F 80% 29.95 in 10.0 mi WNW 5.8 mph - N/A   Clear